Home   Weather   Neuwied   Past weeks

Flag for Germany Past Weather in Neuwied, Rhineland-Palatinate, Germany — Yesterday and Last 2 Weeks

Now
43 °F

Quite cool.


Feels Like: 37 °F
Forecast: 45 / 57 °F
Wind: 10 mph from Southwest

Location: Buechel

Current Time: May 1, 2017 at 8:39:48 am

Latest Report: May 1, 2017 at 7:20 am


Visibility: 5 mi

Pressure: 29.77 "Hg

Humidity: 93%

Dew Point: 41 °F

Location of NeuwiedLocation

Past Weather in Neuwied — Graph

°F

Neuwied Temperature Yesterday

Maximum temperature yesterday: 61 °F (at 5:20 pm)
Minimum temperature yesterday: 36 °F (at 5:20 am)
Average temperature yesterday: 49 °F

High & Low Weather Summary for the Past Weeks

 TemperatureHumidityPressure
High61 °F (Apr 30, 5:20 pm)100% (Apr 17, 10:20 am)30.57 "Hg (Apr 17, 10:20 am)
Low28 °F (Apr 20, 6:20 am)27% (Apr 30, 5:20 pm)29.68 "Hg (Apr 25, 4:20 am)
Average41 °F62%30.09 "Hg
* Reported Apr 16 7:20 am — May 1 7:20 am, Neuwied, Weather by CustomWeather, © 2017

Note: Actual official high and low records may vary slightly from our data, if they occured in-between our weather recording intervals... More about our weather records

Advertising

Neuwied Weather History for the Previous 24 Hours

Scroll right to see more
 ConditionsComfort  
Time TempWeatherWind HumidityBarometerVisibility
7:20 am
Mon, May 1
43 °FQuite cool.10 mph93%29.77 "Hg5 mi
6:20 am46 °FCool.15 mph82%29.74 "HgN/A
5:20 am50 °FCool.5 mph54%29.71 "HgN/A
4:20 am50 °FCool.12 mph54%29.68 "HgN/A
3:20 am52 °FCool.8 mph47%29.68 "HgN/A
2:20 am50 °FCool.7 mph50%29.68 "HgN/A
1:20 am52 °FCool.13 mph44%29.68 "HgN/A
12:20 am52 °FCool.13 mph44%29.68 "HgN/A
11:20 pm
Sun, Apr 30
54 °FCool.13 mph38%29.71 "HgN/A
10:20 pm55 °FRefreshingly cool.12 mph36%29.71 "HgN/A
9:20 pm55 °FRefreshingly cool.10 mph36%29.71 "HgN/A
8:20 pm57 °FRefreshingly cool.13 mph31%29.71 "HgN/A
7:20 pm59 °FRefreshingly cool.16 mph27%29.71 "HgN/A
6:20 pm59 °FRefreshingly cool.12 mph29%29.71 "HgN/A
5:20 pm61 °FRefreshingly cool.13 mph27%29.74 "HgN/A
4:20 pm59 °FRefreshingly cool.15 mph29%29.77 "HgN/A
3:20 pm59 °FRefreshingly cool.20 mph31%29.80 "HgN/A
2:20 pm57 °FRefreshingly cool.20 mph31%29.83 "HgN/A
1:20 pm55 °FRefreshingly cool.18 mph36%29.86 "HgN/A
12:20 pm55 °FRefreshingly cool.17 mph36%29.86 "HgN/A
11:20 am54 °FCool.18 mph38%29.89 "HgN/A
10:20 am50 °FCool.12 mph50%29.92 "HgN/A
9:20 am45 °FQuite cool.12 mph61%29.92 "HgN/A
8:20 am41 °FQuite cool.9 mph66%29.92 "HgN/A
Weather by CustomWeather, © 2017

See weather overviewHow to use our weather pages